Time,TemperatureF,DewpointF,PressureIn,WindDirection,WindDirectionDegrees,WindSpeedMPH,WindSpeedGustMPH,Humidity,HourlyPrecipIn,Conditions,Clouds,dailyrainin,SoftwareType,DateUTC
2013-07-05 00:03:00,71.1,59.6,29.81,SSW,195,1.0,2.0,67,0.00,,CLR,0.00,VWS V14.01,2013-07-05 05:03:00,
2013-07-05 00:09:00,71.3,59.4,29.81,SE,134,1.0,4.0,66,0.00,,CLR,0.00,VWS V14.01,2013-07-05 05:09:00,
2013-07-05 00:15:00,71.5,59.6,29.81,SSE,163,3.0,6.0,66,0.00,,CLR,0.00,VWS V14.01,2013-07-05 05:15:00,
2013-07-05 00:20:00,71.5,59.6,29.81,SSW,197,2.0,7.0,66,0.00,,CLR,0.00,VWS V14.01,2013-07-05 05:20:00,
2013-07-05 00:26:00,71.6,59.7,29.81,SSW,198,1.0,5.0,66,0.00,,CLR,0.00,VWS V14.01,2013-07-05 05:26:00,
2013-07-05 00:31:00,71.6,59.7,29.80,South,172,6.0,6.0,66,0.00,,CLR,0.00,VWS V14.01,2013-07-05 05:31:00,
2013-07-05 00:36:00,71.5,59.6,29.81,SW,219,6.0,6.0,66,0.00,,CLR,0.00,VWS V14.01,2013-07-05 05:36:00,
2013-07-05 00:41:00,71.4,59.9,29.81,SSW,210,2.0,2.0,67,0.00,,CLR,0.00,VWS V14.01,2013-07-05 05:41:00,
2013-07-05 00:47:00,71.3,59.8,29.81,SW,218,1.0,3.0,67,0.00,,CLR,0.00,VWS V14.01,2013-07-05 05:47:00,
2013-07-05 00:53:00,71.0,59.9,29.81,WSW,240,3.0,5.0,68,0.00,,CLR,0.00,VWS V14.01,2013-07-05 05:53:00,
2013-07-05 00:59:00,70.9,59.8,29.81,SSW,212,5.0,5.0,68,0.00,,CLR,0.00,VWS V14.01,2013-07-05 05:59:00,
2013-07-05 01:05:00,70.8,59.7,29.81,South,178,2.0,6.0,68,0.00,,CLR,0.00,VWS V14.01,2013-07-05 06:05:00,
2013-07-05 01:10:00,70.9,59.8,29.81,ENE,67,1.0,6.0,68,0.00,,CLR,0.00,VWS V14.01,2013-07-05 06:10:00,
2013-07-05 01:15:00,70.9,59.8,29.81,South,182,3.0,7.0,68,0.00,,CLR,0.00,VWS V14.01,2013-07-05 06:15:00,
2013-07-05 01:20:00,70.8,60.1,29.81,SW,222,5.0,5.0,69,0.00,,CLR,0.00,VWS V14.01,2013-07-05 06:20:00,
2013-07-05 01:27:00,70.7,60.0,29.81,South,169,2.0,5.0,69,0.00,,CLR,0.00,VWS V14.01,2013-07-05 06:27:00,
2013-07-05 01:33:00,70.6,60.0,29.81,SSW,210,5.0,5.0,69,0.00,,CLR,0.00,VWS V14.01,2013-07-05 06:33:00,
2013-07-05 01:39:00,70.7,60.0,29.81,SSE,163,4.0,4.0,69,0.00,,CLR,0.00,VWS V14.01,2013-07-05 06:39:00,
2013-07-05 01:45:00,70.7,60.0,29.81,SSW,197,7.0,8.0,69,0.00,,CLR,0.00,VWS V14.01,2013-07-05 06:45:00,
2013-07-05 01:50:00,70.7,60.0,29.80,SW,215,1.0,4.0,69,0.00,,CLR,0.00,VWS V14.01,2013-07-05 06:50:00,
2013-07-05 01:55:00,70.6,60.0,29.80,SE,136,1.0,6.0,69,0.00,,CLR,0.00,VWS V14.01,2013-07-05 06:55:00,
2013-07-05 02:00:00,70.6,60.0,29.80,SSE,167,1.0,5.0,69,0.00,,CLR,0.00,VWS V14.01,2013-07-05 07:00:00,
2013-07-05 02:05:00,70.4,59.8,29.80,WSW,246,2.0,5.0,69,0.00,,CLR,0.00,VWS V14.01,2013-07-05 07:05:00,
2013-07-05 02:10:00,70.4,59.8,29.80,SW,214,4.0,5.0,69,0.00,,CLR,0.00,VWS V14.01,2013-07-05 07:10:00,
2013-07-05 02:15:00,70.3,60.1,29.81,South,172,2.0,4.0,70,0.00,,CLR,0.00,VWS V14.01,2013-07-05 07:15:00,
2013-07-05 02:20:00,70.1,59.9,29.80,SSE,160,1.0,3.0,70,0.00,,CLR,0.00,VWS V14.01,2013-07-05 07:20:00,
2013-07-05 02:25:00,70.0,59.8,29.80,SW,226,6.0,8.0,70,0.00,,CLR,0.00,VWS V14.01,2013-07-05 07:25:00,
2013-07-05 02:31:00,70.1,59.9,29.80,SSW,204,4.0,4.0,70,0.00,,CLR,0.00,VWS V14.01,2013-07-05 07:31:00,
2013-07-05 02:37:00,70.1,59.9,29.81,SSW,209,1.0,3.0,70,0.00,,CLR,0.00,VWS V14.01,2013-07-05 07:37:00,
2013-07-05 02:43:00,69.9,59.7,29.81,South,188,1.0,3.0,70,0.00,,CLR,0.00,VWS V14.01,2013-07-05 07:43:00,
2013-07-05 02:49:00,69.8,59.6,29.81,SW,222,5.0,5.0,70,0.00,,CLR,0.00,VWS V14.01,2013-07-05 07:49:00,
2013-07-05 02:55:00,69.7,59.5,29.81,SSE,156,2.0,6.0,70,0.00,,CLR,0.00,VWS V14.01,2013-07-05 07:55:00,
2013-07-05 03:00:00,69.7,59.5,29.81,WNW,291,2.0,6.0,70,0.00,,CLR,0.00,VWS V14.01,2013-07-05 08:00:00,
2013-07-05 03:05:00,69.7,59.5,29.81,South,179,0.0,5.0,70,0.00,,CLR,0.00,VWS V14.01,2013-07-05 08:05:00,
2013-07-05 03:11:00,69.5,59.7,29.81,SE,129,1.0,5.0,71,0.00,,CLR,0.00,VWS V14.01,2013-07-05 08:11:00,
2013-07-05 03:17:00,69.4,59.6,29.80,SSE,150,3.0,5.0,71,0.00,,CLR,0.00,VWS V14.01,2013-07-05 08:17:00,
2013-07-05 03:23:00,69.3,59.5,29.80,WSW,239,0.0,2.0,71,0.00,,CLR,0.00,VWS V14.01,2013-07-05 08:23:00,
2013-07-05 03:29:00,69.2,59.8,29.80,WSW,239,3.0,5.0,72,0.00,,CLR,0.00,VWS V14.01,2013-07-05 08:29:00,
2013-07-05 03:35:00,69.2,59.8,29.80,WSW,256,4.0,5.0,72,0.00,,CLR,0.00,VWS V14.01,2013-07-05 08:35:00,
2013-07-05 03:41:00,69.1,59.7,29.81,WSW,252,2.0,4.0,72,0.00,,CLR,0.00,VWS V14.01,2013-07-05 08:41:00,
2013-07-05 03:47:00,68.9,59.5,29.80,South,184,2.0,5.0,72,0.00,,CLR,0.00,VWS V14.01,2013-07-05 08:47:00,
2013-07-05 03:53:00,68.7,59.7,29.80,SW,214,2.0,5.0,73,0.00,,CLR,0.00,VWS V14.01,2013-07-05 08:53:00,
2013-07-05 04:00:00,68.5,59.5,29.80,SW,231,4.0,4.0,73,0.00,,CLR,0.00,VWS V14.01,2013-07-05 09:00:00,
2013-07-05 04:06:00,68.4,59.8,29.80,SSW,204,2.0,7.0,74,0.00,,CLR,0.00,VWS V14.01,2013-07-05 09:06:00,
2013-07-05 04:12:00,68.3,59.7,29.81,SSW,210,0.0,4.0,74,0.00,,CLR,0.00,VWS V14.01,2013-07-05 09:12:00,
2013-07-05 04:19:00,68.2,59.6,29.81,SW,219,2.0,4.0,74,0.00,,CLR,0.00,VWS V14.01,2013-07-05 09:19:00,
2013-07-05 04:25:00,68.1,59.5,29.81,West,263,1.0,7.0,74,0.00,,CLR,0.00,VWS V14.01,2013-07-05 09:25:00,
2013-07-05 04:30:00,68.0,59.4,29.81,SSW,209,1.0,6.0,74,0.00,,CLR,0.00,VWS V14.01,2013-07-05 09:30:00,
2013-07-05 04:37:00,67.9,59.3,29.81,SW,219,4.0,6.0,74,0.00,,CLR,0.00,VWS V14.01,2013-07-05 09:37:00,
2013-07-05 04:45:00,67.9,59.3,29.81,SW,217,4.0,4.0,74,0.00,,CLR,0.00,VWS V14.01,2013-07-05 09:45:00,
2013-07-05 04:51:00,67.8,59.2,29.81,SSE,162,4.0,6.0,74,0.00,,CLR,0.00,VWS V14.01,2013-07-05 09:51:00,
2013-07-05 04:57:00,67.6,59.4,29.81,SSW,194,1.0,2.0,75,0.00,,CLR,0.00,VWS V14.01,2013-07-05 09:57:00,
2013-07-05 05:03:00,67.5,59.3,29.80,WSW,242,1.0,3.0,75,0.00,,CLR,0.00,VWS V14.01,2013-07-05 10:03:00,
2013-07-05 05:09:00,67.4,59.2,29.80,WSW,252,6.0,6.0,75,0.00,,CLR,0.00,VWS V14.01,2013-07-05 10:09:00,
2013-07-05 05:15:00,67.4,59.2,29.80,South,176,2.0,6.0,75,0.00,,CLR,0.00,VWS V14.01,2013-07-05 10:15:00,
2013-07-05 05:20:00,67.4,59.2,29.80,SSW,197,4.0,4.0,75,0.00,,CLR,0.00,VWS V14.01,2013-07-05 10:20:00,
2013-07-05 05:25:00,67.4,59.2,29.81,SSE,150,2.0,6.0,75,0.00,,CLR,0.00,VWS V14.01,2013-07-05 10:25:00,
2013-07-05 05:30:00,67.4,59.2,29.80,South,184,6.0,6.0,75,0.00,,CLR,0.00,VWS V14.01,2013-07-05 10:30:00,
2013-07-05 05:35:00,67.4,59.2,29.80,WSW,249,2.0,7.0,75,0.00,,CLR,0.00,VWS V14.01,2013-07-05 10:35:00,
2013-07-05 05:40:00,67.4,59.2,29.80,SE,143,2.0,3.0,75,0.00,,CLR,0.00,VWS V14.01,2013-07-05 10:40:00,
2013-07-05 05:45:00,67.2,59.0,29.81,SSE,151,4.0,4.0,75,0.00,,CLR,0.00,VWS V14.01,2013-07-05 10:45:00,
2013-07-05 05:51:00,67.1,58.9,29.80,South,179,4.0,4.0,75,0.00,,CLR,0.00,VWS V14.01,2013-07-05 10:51:00,
2013-07-05 05:57:00,67.1,58.9,29.80,SSW,211,5.0,5.0,75,0.00,,CLR,0.00,VWS V14.01,2013-07-05 10:57:00,
2013-07-05 06:03:00,67.2,59.0,29.80,SSE,160,2.0,4.0,75,0.00,,CLR,0.00,VWS V14.01,2013-07-05 11:03:00,
2013-07-05 06:09:00,67.3,59.1,29.80,West,263,2.0,5.0,75,0.00,,CLR,0.00,VWS V14.01,2013-07-05 11:09:00,
2013-07-05 06:15:00,67.4,59.2,29.80,SSW,211,3.0,5.0,75,0.00,,CLR,0.00,VWS V14.01,2013-07-05 11:15:00,
2013-07-05 06:21:00,67.5,59.3,29.80,WSW,239,0.0,5.0,75,0.00,,CLR,0.00,VWS V14.01,2013-07-05 11:21:00,
2013-07-05 06:27:00,67.6,59.4,29.81,SSW,194,3.0,5.0,75,0.00,,CLR,0.00,VWS V14.01,2013-07-05 11:27:00,
2013-07-05 06:33:00,67.7,59.5,29.81,SW,216,2.0,5.0,75,0.00,,CLR,0.00,VWS V14.01,2013-07-05 11:33:00,
2013-07-05 06:40:00,67.9,59.7,29.80,SSW,198,3.0,8.0,75,0.00,,CLR,0.00,VWS V14.01,2013-07-05 11:40:00,
2013-07-05 06:45:00,68.0,59.8,29.80,SW,235,2.0,7.0,75,0.00,,CLR,0.00,VWS V14.01,2013-07-05 11:45:00,
2013-07-05 06:50:00,68.3,59.7,29.80,SW,214,4.0,7.0,74,0.00,,CLR,0.00,VWS V14.01,2013-07-05 11:50:00,
2013-07-05 06:55:00,68.6,60.0,29.80,South,173,4.0,6.0,74,0.00,,CLR,0.00,VWS V14.01,2013-07-05 11:55:00,
2013-07-05 07:00:00,69.2,60.6,29.80,South,177,3.0,6.0,74,0.00,,CLR,0.00,VWS V14.01,2013-07-05 12:00:00,
2013-07-05 07:05:00,69.8,60.4,29.80,SSW,196,1.0,5.0,72,0.00,,CLR,0.00,VWS V14.01,2013-07-05 12:05:00,
2013-07-05 07:10:00,70.0,60.6,29.80,SSW,193,1.0,7.0,72,0.00,,CLR,0.00,VWS V14.01,2013-07-05 12:10:00,
2013-07-05 07:15:00,70.0,60.2,29.80,WSW,245,3.0,7.0,71,0.00,,CLR,0.00,VWS V14.01,2013-07-05 12:15:00,
2013-07-05 07:24:00,69.9,60.5,29.80,SW,217,5.0,9.0,72,0.00,,CLR,0.00,VWS V14.01,2013-07-05 12:24:00,
2013-07-05 07:30:00,69.0,61.1,29.79,West,259,5.0,11.0,76,0.07,,CLR,0.07,VWS V14.01,2013-07-05 12:30:00,
2013-07-05 07:36:00,67.9,61.2,29.80,SE,133,3.0,3.0,79,0.12,,SCT085,0.12,VWS V14.01,2013-07-05 12:36:00,
2013-07-05 07:42:00,67.1,61.1,29.80,South,184,2.0,3.0,81,0.16,,SCT085,0.16,VWS V14.01,2013-07-05 12:42:00,
2013-07-05 07:48:00,66.8,60.8,29.80,ESE,114,1.0,3.0,81,0.16,,SCT085,0.16,VWS V14.01,2013-07-05 12:48:00,
2013-07-05 07:54:00,66.8,60.8,29.80,West,264,1.0,3.0,81,0.16,,SCT085,0.16,VWS V14.01,2013-07-05 12:54:00,
2013-07-05 08:00:00,67.0,61.0,29.80,ENE,64,0.0,6.0,81,0.16,,SCT085,0.16,VWS V14.01,2013-07-05 13:00:00,
2013-07-05 08:05:00,67.1,61.1,29.80,East,89,3.0,5.0,81,0.16,,SCT085,0.16,VWS V14.01,2013-07-05 13:05:00,
2013-07-05 08:11:00,67.2,60.8,29.80,South,169,1.0,3.0,80,0.16,,SCT085,0.16,VWS V14.01,2013-07-05 13:11:00,
2013-07-05 08:18:00,67.4,61.0,29.79,ESE,102,2.0,2.0,80,0.16,,SCT085,0.16,VWS V14.01,2013-07-05 13:18:00,
2013-07-05 08:24:00,67.4,61.0,29.79,SSE,165,0.0,4.0,80,0.16,,SCT085,0.16,VWS V14.01,2013-07-05 13:24:00,
2013-07-05 08:30:00,67.6,61.2,29.80,ENE,70,2.0,3.0,80,0.14,,SCT085,0.16,VWS V14.01,2013-07-05 13:30:00,
2013-07-05 08:35:00,67.8,61.4,29.79,East,96,2.0,5.0,80,0.09,,-RA,0.16,VWS V14.01,2013-07-05 13:35:00,
2013-07-05 08:41:00,67.9,61.5,29.79,East,100,2.0,3.0,80,0.04,,-RA,0.16,VWS V14.01,2013-07-05 13:41:00,
2013-07-05 08:47:00,67.9,61.5,29.79,East,100,2.0,4.0,80,0.00,,-RA,0.16,VWS V14.01,2013-07-05 13:47:00,
2013-07-05 08:53:00,68.5,62.5,29.79,SE,130,4.0,4.0,81,0.00,,-RA,0.16,VWS V14.01,2013-07-05 13:53:00,
2013-07-05 08:59:00,69.6,62.4,29.79,ESE,116,2.0,6.0,78,0.00,,-RA,0.16,VWS V14.01,2013-07-05 13:59:00,
2013-07-05 09:06:00,70.4,62.5,29.79,ESE,109,3.0,4.0,76,0.00,,OVC095,0.16,VWS V14.01,2013-07-05 14:06:00,
2013-07-05 09:12:00,71.7,63.4,29.78,SSE,150,3.0,4.0,75,0.00,,OVC095,0.16,VWS V14.01,2013-07-05 14:12:00,
2013-07-05 09:18:00,72.8,63.3,29.78,SE,138,3.0,7.0,72,0.00,,OVC095,0.16,VWS V14.01,2013-07-05 14:18:00,
2013-07-05 09:24:00,73.7,64.1,29.78,SE,138,5.0,7.0,72,0.00,,OVC095,0.16,VWS V14.01,2013-07-05 14:24:00,
2013-07-05 09:30:00,74.6,65.0,29.78,ESE,115,1.0,6.0,72,0.00,,OVC095,0.16,VWS V14.01,2013-07-05 14:30:00,
2013-07-05 09:35:00,75.4,64.1,29.78,SE,137,6.0,9.0,68,0.00,,BKN095,0.16,VWS V14.01,2013-07-05 14:35:00,
2013-07-05 09:40:00,76.0,65.1,29.78,SSE,151,6.0,7.0,69,0.00,,BKN095,0.16,VWS V14.01,2013-07-05 14:40:00,
2013-07-05 09:45:00,76.6,64.8,29.78,SE,136,3.0,6.0,67,0.00,,BKN095,0.16,VWS V14.01,2013-07-05 14:45:00,
2013-07-05 09:50:00,77.1,65.3,29.78,ESE,119,6.0,6.0,67,0.00,,BKN095,0.16,VWS V14.01,2013-07-05 14:50:00,
2013-07-05 09:55:00,77.7,65.0,29.78,South,169,2.0,6.0,65,0.00,,BKN095,0.16,VWS V14.01,2013-07-05 14:55:00,
2013-07-05 10:00:00,78.5,66.2,29.78,SW,225,3.0,11.0,66,0.00,,BKN095,0.16,VWS V14.01,2013-07-05 15:00:00,
2013-07-05 10:05:00,79.7,66.0,29.77,SSW,197,2.0,6.0,63,0.00,,SCT095,0.16,VWS V14.01,2013-07-05 15:05:00,
2013-07-05 10:11:00,79.9,64.8,29.77,SE,124,6.0,6.0,60,0.00,,SCT095,0.16,VWS V14.01,2013-07-05 15:11:00,
2013-07-05 10:18:00,79.7,65.1,29.77,SW,229,7.0,7.0,61,0.00,,SCT095,0.16,VWS V14.01,2013-07-05 15:18:00,
2013-07-05 10:24:00,80.0,63.9,29.77,SSW,195,5.0,7.0,58,0.00,,SCT095,0.16,VWS V14.01,2013-07-05 15:24:00,
2013-07-05 10:30:00,80.3,63.7,29.77,WSW,257,5.0,8.0,57,0.00,,SCT095,0.16,VWS V14.01,2013-07-05 15:30:00,
2013-07-05 10:35:00,80.7,65.1,29.77,SW,217,4.0,7.0,59,0.00,,CLR,0.16,VWS V14.01,2013-07-05 15:35:00,
2013-07-05 10:40:00,81.0,64.8,29.77,SW,233,7.0,8.0,58,0.00,,CLR,0.16,VWS V14.01,2013-07-05 15:40:00,
2013-07-05 10:45:00,81.4,64.2,29.77,South,190,7.0,8.0,56,0.00,,CLR,0.16,VWS V14.01,2013-07-05 15:45:00,
2013-07-05 10:50:00,81.7,65.0,29.77,SW,229,5.0,7.0,57,0.00,,SCT095,0.16,VWS V14.01,2013-07-05 15:50:00,
2013-07-05 10:55:00,82.0,64.8,29.77,SSE,153,3.0,7.0,56,0.00,,SCT095,0.16,VWS V14.01,2013-07-05 15:55:00,
2013-07-05 11:00:00,82.2,64.4,29.77,SSW,200,4.0,8.0,55,0.00,,SCT095,0.16,VWS V14.01,2013-07-05 16:00:00,
2013-07-05 11:05:00,82.5,64.2,29.76,West,276,5.0,8.0,54,0.00,,CLR,0.16,VWS V14.01,2013-07-05 16:05:00,
2013-07-05 11:10:00,82.4,63.6,29.76,West,267,4.0,11.0,53,0.00,,CLR,0.16,VWS V14.01,2013-07-05 16:10:00,
2013-07-05 11:15:00,82.3,63.5,29.76,SW,221,5.0,10.0,53,0.00,,CLR,0.16,VWS V14.01,2013-07-05 16:15:00,
2013-07-05 11:20:00,82.4,63.6,29.76,SW,236,6.0,9.0,53,0.00,,CLR,0.16,VWS V14.01,2013-07-05 16:20:00,
2013-07-05 11:25:00,82.7,64.9,29.76,SW,219,6.0,8.0,55,0.00,,CLR,0.16,VWS V14.01,2013-07-05 16:25:00,
2013-07-05 11:31:00,83.1,63.7,29.76,SW,226,3.0,8.0,52,0.00,,CLR,0.16,VWS V14.01,2013-07-05 16:31:00,
2013-07-05 11:36:00,83.3,63.9,29.76,West,269,7.0,9.0,52,0.00,,SCT095,0.16,VWS V14.01,2013-07-05 16:36:00,
2013-07-05 11:42:00,83.4,64.5,29.76,SSE,150,2.0,5.0,53,0.00,,SCT095,0.16,VWS V14.01,2013-07-05 16:42:00,
2013-07-05 11:48:00,83.8,64.3,29.76,SSW,204,9.0,10.0,52,0.00,,SCT095,0.16,VWS V14.01,2013-07-05 16:48:00,
2013-07-05 11:54:00,84.0,63.4,29.76,SW,225,9.0,9.0,50,0.00,,SCT095,0.16,VWS V14.01,2013-07-05 16:54:00,
2013-07-05 12:00:00,84.1,64.6,29.76,South,180,5.0,13.0,52,0.00,,SCT095,0.16,VWS V14.01,2013-07-05 17:00:00,
2013-07-05 12:05:00,84.1,63.5,29.76,South,174,6.0,11.0,50,0.00,,CLR,0.16,VWS V14.01,2013-07-05 17:05:00,
2013-07-05 12:10:00,84.0,62.8,29.76,SSW,197,5.0,13.0,49,0.00,,CLR,0.16,VWS V14.01,2013-07-05 17:10:00,
2013-07-05 12:15:00,83.7,64.2,29.76,West,267,4.0,9.0,52,0.00,,CLR,0.16,VWS V14.01,2013-07-05 17:15:00,
2013-07-05 12:20:00,83.5,64.0,29.76,SE,131,5.0,6.0,52,0.00,,CLR,0.16,VWS V14.01,2013-07-05 17:20:00,
2013-07-05 12:26:00,83.6,65.2,29.75,WSW,243,4.0,7.0,54,0.00,,CLR,0.16,VWS V14.01,2013-07-05 17:26:00,
2013-07-05 12:32:00,83.8,64.9,29.76,WSW,243,7.0,7.0,53,0.00,,CLR,0.16,VWS V14.01,2013-07-05 17:32:00,
2013-07-05 12:38:00,83.7,64.8,29.76,SW,219,3.0,8.0,53,0.00,,CLR,0.16,VWS V14.01,2013-07-05 17:38:00,
2013-07-05 12:44:00,83.7,64.8,29.76,SW,217,7.0,10.0,53,0.00,,CLR,0.16,VWS V14.01,2013-07-05 17:44:00,
2013-07-05 12:50:00,83.5,63.5,29.75,SW,214,9.0,14.0,51,0.00,,CLR,0.16,VWS V14.01,2013-07-05 17:50:00,
2013-07-05 12:55:00,83.3,63.3,29.75,NW,305,6.0,7.0,51,0.00,,CLR,0.16,VWS V14.01,2013-07-05 17:55:00,
2013-07-05 13:00:00,83.0,63.6,29.75,SW,228,7.0,10.0,52,0.00,,CLR,0.16,VWS V14.01,2013-07-05 18:00:00,
2013-07-05 13:05:00,82.7,63.8,29.75,SW,229,7.0,9.0,53,0.00,,CLR,0.16,VWS V14.01,2013-07-05 18:05:00,
2013-07-05 13:10:00,82.6,63.8,29.75,South,169,3.0,8.0,53,0.00,,CLR,0.16,VWS V14.01,2013-07-05 18:10:00,
2013-07-05 13:15:00,82.4,64.6,29.75,SSW,212,3.0,9.0,55,0.00,,CLR,0.16,VWS V14.01,2013-07-05 18:15:00,
2013-07-05 13:20:00,82.2,64.4,29.74,SE,130,2.0,11.0,55,0.00,,CLR,0.16,VWS V14.01,2013-07-05 18:20:00,
2013-07-05 13:25:00,81.7,64.0,29.74,SSW,201,3.0,5.0,55,0.00,,CLR,0.16,VWS V14.01,2013-07-05 18:25:00,
2013-07-05 13:30:00,81.3,63.6,29.74,SSE,151,4.0,4.0,55,0.00,,CLR,0.16,VWS V14.01,2013-07-05 18:30:00,
2013-07-05 13:35:00,81.1,62.9,29.74,SSE,161,4.0,10.0,54,0.00,,CLR,0.16,VWS V14.01,2013-07-05 18:35:00,
2013-07-05 13:40:00,81.0,63.3,29.74,SSE,155,2.0,6.0,55,0.00,,CLR,0.16,VWS V14.01,2013-07-05 18:40:00,
2013-07-05 13:46:00,80.9,63.2,29.74,WSW,246,2.0,6.0,55,0.00,,CLR,0.16,VWS V14.01,2013-07-05 18:46:00,
2013-07-05 13:52:00,80.9,63.8,29.74,SW,225,4.0,6.0,56,0.00,,CLR,0.16,VWS V14.01,2013-07-05 18:52:00,
2013-07-05 13:58:00,80.9,64.2,29.74,WSW,243,7.0,9.0,57,0.00,,CLR,0.16,VWS V14.01,2013-07-05 18:58:00,
2013-07-05 14:04:00,81.0,64.3,29.75,WSW,252,1.0,5.0,57,0.00,,CLR,0.16,VWS V14.01,2013-07-05 19:04:00,
2013-07-05 14:10:00,81.2,65.5,29.75,WSW,243,3.0,5.0,59,0.00,,CLR,0.16,VWS V14.01,2013-07-05 19:10:00,
2013-07-05 14:15:00,81.5,66.3,29.75,WNW,287,3.0,5.0,60,0.00,,CLR,0.16,VWS V14.01,2013-07-05 19:15:00,
2013-07-05 14:20:00,81.8,65.6,29.75,WSW,257,2.0,4.0,58,0.00,,CLR,0.16,VWS V14.01,2013-07-05 19:20:00,
2013-07-05 14:25:00,82.1,66.8,29.75,South,183,1.0,5.0,60,0.00,,CLR,0.16,VWS V14.01,2013-07-05 19:25:00,
2013-07-05 14:30:00,82.3,67.0,29.75,SSE,167,0.0,4.0,60,0.00,,CLR,0.16,VWS V14.01,2013-07-05 19:30:00,
2013-07-05 14:35:00,82.4,66.2,29.75,SSE,150,3.0,5.0,58,0.00,,SCT100,0.16,VWS V14.01,2013-07-05 19:35:00,
2013-07-05 14:40:00,82.3,66.1,29.74,South,172,5.0,5.0,58,0.00,,SCT100,0.16,VWS V14.01,2013-07-05 19:40:00,
2013-07-05 14:45:00,82.2,66.0,29.74,SW,228,2.0,5.0,58,0.00,,SCT100,0.16,VWS V14.01,2013-07-05 19:45:00,
2013-07-05 14:50:00,81.8,65.6,29.74,SSW,200,2.0,7.0,58,0.00,,BKN110,0.16,VWS V14.01,2013-07-05 19:50:00,
2013-07-05 14:55:00,81.5,66.3,29.74,SSE,153,2.0,5.0,60,0.00,,BKN110,0.16,VWS V14.01,2013-07-05 19:55:00,
2013-07-05 14:56:00,81.5,66.3,29.74,South,176,1.0,2.0,60,0.00,,BKN110,0.16,VWS V14.01,2013-07-05 19:56:00,
2013-07-05 15:03:00,81.1,65.9,29.74,SW,222,1.0,6.0,60,0.00,,BKN110,0.16,VWS V14.01,2013-07-05 20:03:00,
2013-07-05 15:09:00,80.8,66.1,29.74,SE,143,0.0,4.0,61,0.00,,BKN110,0.16,VWS V14.01,2013-07-05 20:09:00,
2013-07-05 15:15:00,80.6,65.4,29.74,SW,228,1.0,3.0,60,0.00,,BKN110,0.16,VWS V14.01,2013-07-05 20:15:00,
2013-07-05 15:20:00,80.3,65.2,29.74,South,188,2.0,3.0,60,0.00,,BKN110,0.16,VWS V14.01,2013-07-05 20:20:00,
2013-07-05 15:25:00,80.2,65.1,29.74,South,183,2.0,3.0,60,0.00,,BKN110,0.16,VWS V14.01,2013-07-05 20:25:00,
2013-07-05 15:30:00,80.0,64.9,29.74,SSW,198,1.0,3.0,60,0.00,,BKN110,0.16,VWS V14.01,2013-07-05 20:30:00,
2013-07-05 15:35:00,80.0,64.9,29.74,South,176,0.0,3.0,60,0.00,,SCT120,0.16,VWS V14.01,2013-07-05 20:35:00,
2013-07-05 15:40:00,80.1,65.4,29.74,SSW,212,1.0,5.0,61,0.00,,SCT120,0.16,VWS V14.01,2013-07-05 20:40:00,
2013-07-05 15:45:00,80.5,66.3,29.74,South,181,1.0,4.0,62,0.00,,SCT120,0.16,VWS V14.01,2013-07-05 20:45:00,
2013-07-05 15:50:00,80.8,66.1,29.74,SE,136,3.0,4.0,61,0.00,,SCT120,0.16,VWS V14.01,2013-07-05 20:50:00,
2013-07-05 15:55:00,81.1,66.4,29.74,South,174,2.0,3.0,61,0.00,,SCT120,0.16,VWS V14.01,2013-07-05 20:55:00,
2013-07-05 16:00:00,81.4,66.7,29.74,SW,220,2.0,4.0,61,0.00,,SCT120,0.16,VWS V14.01,2013-07-05 21:00:00,
2013-07-05 16:05:00,82.0,66.8,29.74,SSW,211,0.0,4.0,60,0.00,,CLR,0.16,VWS V14.01,2013-07-05 21:05:00,
2013-07-05 16:10:00,82.9,69.0,29.74,SSE,153,5.0,5.0,63,0.00,,CLR,0.16,VWS V14.01,2013-07-05 21:10:00,
2013-07-05 16:15:00,83.4,67.6,29.74,SW,229,2.0,6.0,59,0.00,,CLR,0.16,VWS V14.01,2013-07-05 21:15:00,
2013-07-05 16:20:00,83.7,67.9,29.74,South,176,0.0,5.0,59,0.00,,CLR,0.16,VWS V14.01,2013-07-05 21:20:00,
2013-07-05 16:25:00,83.9,67.6,29.74,South,188,1.0,6.0,58,0.00,,CLR,0.16,VWS V14.01,2013-07-05 21:25:00,
2013-07-05 16:30:00,83.9,67.6,29.74,ESE,106,2.0,5.0,58,0.00,,CLR,0.16,VWS V14.01,2013-07-05 21:30:00,
2013-07-05 16:35:00,84.3,65.9,29.73,SSE,165,6.0,7.0,54,0.00,,SCT110,0.16,VWS V14.01,2013-07-05 21:35:00,
2013-07-05 16:40:00,84.8,66.3,29.73,West,269,3.0,6.0,54,0.00,,SCT110,0.16,VWS V14.01,2013-07-05 21:40:00,
2013-07-05 16:45:00,84.9,66.9,29.73,NW,310,6.0,7.0,55,0.00,,SCT110,0.16,VWS V14.01,2013-07-05 21:45:00,
2013-07-05 16:50:00,85.1,65.0,29.73,SW,228,8.0,10.0,51,0.00,,SCT110,0.16,VWS V14.01,2013-07-05 21:50:00,
2013-07-05 16:55:00,85.3,65.7,29.73,SW,231,4.0,8.0,52,0.00,,SCT110,0.16,VWS V14.01,2013-07-05 21:55:00,
2013-07-05 17:00:00,85.3,65.7,29.73,West,267,3.0,8.0,52,0.00,,SCT110,0.16,VWS V14.01,2013-07-05 22:00:00,
2013-07-05 17:05:00,85.5,65.9,29.73,South,184,10.0,10.0,52,0.00,,SCT110,0.16,VWS V14.01,2013-07-05 22:05:00,
2013-07-05 17:10:00,85.8,65.6,29.72,South,174,4.0,13.0,51,0.00,,SCT110,0.16,VWS V14.01,2013-07-05 22:10:00,
2013-07-05 17:15:00,85.6,65.4,29.72,SSW,201,10.0,10.0,51,0.00,,SCT110,0.16,VWS V14.01,2013-07-05 22:15:00,
2013-07-05 17:20:00,85.4,66.3,29.72,SSW,203,4.0,10.0,53,0.00,,SCT110,0.16,VWS V14.01,2013-07-05 22:20:00,
2013-07-05 17:25:00,85.4,65.8,29.72,South,186,6.0,10.0,52,0.00,,SCT110,0.16,VWS V14.01,2013-07-05 22:25:00,
2013-07-05 17:30:00,85.3,66.2,29.72,SSW,210,3.0,7.0,53,0.00,,SCT110,0.16,VWS V14.01,2013-07-05 22:30:00,
2013-07-05 17:35:00,85.3,66.2,29.72,WSW,243,2.0,10.0,53,0.00,,CLR,0.16,VWS V14.01,2013-07-05 22:35:00,
2013-07-05 17:40:00,85.5,67.0,29.72,SSE,165,1.0,4.0,54,0.00,,CLR,0.16,VWS V14.01,2013-07-05 22:40:00,
2013-07-05 17:45:00,85.5,66.4,29.72,SW,228,3.0,6.0,53,0.00,,CLR,0.16,VWS V14.01,2013-07-05 22:45:00,
2013-07-05 17:50:00,85.4,66.9,29.72,South,188,5.0,7.0,54,0.00,,SCT110,0.16,VWS V14.01,2013-07-05 22:50:00,
2013-07-05 17:55:00,85.4,66.3,29.72,SW,224,3.0,10.0,53,0.00,,SCT110,0.16,VWS V14.01,2013-07-05 22:55:00,
2013-07-05 18:01:00,85.3,66.2,29.72,SW,228,2.0,8.0,53,0.00,,SCT110,0.16,VWS V14.01,2013-07-05 23:01:00,
2013-07-05 18:07:00,85.2,65.6,29.71,SSE,167,4.0,9.0,52,0.00,,SCT110,0.16,VWS V14.01,2013-07-05 23:07:00,
2013-07-05 18:13:00,85.0,66.5,29.71,SSE,167,3.0,6.0,54,0.00,,SCT110,0.16,VWS V14.01,2013-07-05 23:13:00,
2013-07-05 18:19:00,85.0,66.5,29.71,SSE,167,3.0,11.0,54,0.00,,SCT110,0.16,VWS V14.01,2013-07-05 23:19:00,
2013-07-05 18:25:00,85.0,66.5,29.71,SSE,161,9.0,9.0,54,0.00,,SCT110,0.16,VWS V14.01,2013-07-05 23:25:00,
2013-07-05 18:30:00,84.8,65.8,29.71,SSW,204,4.0,11.0,53,0.00,,SCT110,0.16,VWS V14.01,2013-07-05 23:30:00,
2013-07-05 18:35:00,84.7,65.1,29.70,SW,219,2.0,8.0,52,0.00,,CLR,0.16,VWS V14.01,2013-07-05 23:35:00,
2013-07-05 18:40:00,84.5,65.5,29.71,South,174,1.0,10.0,53,0.00,,CLR,0.16,VWS V14.01,2013-07-05 23:40:00,
2013-07-05 18:45:00,84.5,66.1,29.71,SSE,158,5.0,9.0,54,0.00,,CLR,0.16,VWS V14.01,2013-07-05 23:45:00,
2013-07-05 18:50:00,84.3,65.3,29.71,SSW,207,6.0,6.0,53,0.00,,CLR,0.16,VWS V14.01,2013-07-05 23:50:00,
2013-07-05 18:55:00,84.1,64.6,29.71,South,191,4.0,6.0,52,0.00,,CLR,0.16,VWS V14.01,2013-07-05 23:55:00,
2013-07-05 19:00:00,84.0,65.6,29.71,West,262,2.0,10.0,54,0.00,,CLR,0.16,VWS V14.01,2013-07-06 00:00:00,
2013-07-05 19:05:00,83.9,64.9,29.71,South,177,4.0,8.0,53,0.00,,SCT110,0.16,VWS V14.01,2013-07-06 00:05:00,
2013-07-05 19:10:00,83.7,64.8,29.71,West,281,6.0,10.0,53,0.00,,SCT110,0.16,VWS V14.01,2013-07-06 00:10:00,
2013-07-05 19:15:00,83.4,64.5,29.71,West,271,2.0,8.0,53,0.00,,SCT110,0.16,VWS V14.01,2013-07-06 00:15:00,
2013-07-05 19:20:00,82.9,64.6,29.71,South,186,7.0,7.0,54,0.00,,CLR,0.16,VWS V14.01,2013-07-06 00:20:00,
2013-07-05 19:25:00,82.6,64.3,29.71,SSW,203,4.0,7.0,54,0.00,,CLR,0.16,VWS V14.01,2013-07-06 00:25:00,
2013-07-05 19:30:00,82.4,64.1,29.71,SE,129,2.0,7.0,54,0.00,,CLR,0.16,VWS V14.01,2013-07-06 00:30:00,
2013-07-05 19:35:00,82.0,64.3,29.72,SSW,192,6.0,6.0,55,0.00,,CLR,0.16,VWS V14.01,2013-07-06 00:35:00,
2013-07-05 19:40:00,81.7,64.0,29.72,SSW,205,8.0,9.0,55,0.00,,CLR,0.16,VWS V14.01,2013-07-06 00:40:00,
2013-07-05 19:45:00,81.4,63.7,29.72,SE,136,3.0,9.0,55,0.00,,CLR,0.16,VWS V14.01,2013-07-06 00:45:00,
2013-07-05 19:50:00,81.2,64.0,29.72,ESE,114,2.0,7.0,56,0.00,,CLR,0.16,VWS V14.01,2013-07-06 00:50:00,
2013-07-05 19:55:00,81.0,64.3,29.72,WSW,243,12.0,12.0,57,0.00,,CLR,0.16,VWS V14.01,2013-07-06 00:55:00,
2013-07-05 20:00:00,80.7,64.1,29.72,WSW,243,8.0,12.0,57,0.00,,CLR,0.16,VWS V14.01,2013-07-06 01:00:00,
2013-07-05 20:05:00,80.5,64.4,29.72,SW,229,3.0,9.0,58,0.00,,CLR,0.16,VWS V14.01,2013-07-06 01:05:00,
2013-07-05 20:10:00,80.4,64.3,29.72,SSW,212,2.0,7.0,58,0.00,,CLR,0.16,VWS V14.01,2013-07-06 01:10:00,
2013-07-05 20:15:00,80.2,64.6,29.72,SSE,151,3.0,5.0,59,0.00,,CLR,0.16,VWS V14.01,2013-07-06 01:15:00,
2013-07-05 20:20:00,80.1,64.5,29.72,NNW,342,1.0,3.0,59,0.00,,CLR,0.16,VWS V14.01,2013-07-06 01:20:00,
2013-07-05 20:25:00,79.8,64.2,29.72,SE,127,1.0,4.0,59,0.00,,CLR,0.16,VWS V14.01,2013-07-06 01:25:00,
2013-07-05 20:30:00,79.6,64.5,29.72,South,183,4.0,6.0,60,0.00,,CLR,0.16,VWS V14.01,2013-07-06 01:30:00,
2013-07-05 20:35:00,79.4,64.8,29.72,South,177,3.0,5.0,61,0.00,,CLR,0.16,VWS V14.01,2013-07-06 01:35:00,
2013-07-05 20:40:00,79.1,65.0,29.72,SW,214,3.0,3.0,62,0.00,,CLR,0.16,VWS V14.01,2013-07-06 01:40:00,
2013-07-05 20:45:00,78.8,64.7,29.72,SE,136,1.0,3.0,62,0.00,,CLR,0.16,VWS V14.01,2013-07-06 01:45:00,
2013-07-05 20:50:00,78.6,64.5,29.72,SE,146,0.0,5.0,62,0.00,,CLR,0.16,VWS V14.01,2013-07-06 01:50:00,
2013-07-05 20:55:00,78.4,64.3,29.72,SE,129,1.0,9.0,62,0.00,,CLR,0.16,VWS V14.01,2013-07-06 01:55:00,
2013-07-05 21:00:00,78.4,64.3,29.72,West,278,5.0,5.0,62,0.00,,CLR,0.16,VWS V14.01,2013-07-06 02:00:00,
2013-07-05 21:05:00,78.3,64.2,29.72,West,273,2.0,5.0,62,0.00,,CLR,0.16,VWS V14.01,2013-07-06 02:05:00,
2013-07-05 21:10:00,78.2,64.1,29.72,SSE,148,0.0,5.0,62,0.00,,CLR,0.16,VWS V14.01,2013-07-06 02:10:00,
2013-07-05 21:15:00,78.3,64.2,29.73,SSW,194,1.0,4.0,62,0.00,,CLR,0.16,VWS V14.01,2013-07-06 02:15:00,
2013-07-05 21:20:00,78.3,64.2,29.73,SSW,205,2.0,5.0,62,0.00,,CLR,0.16,VWS V14.01,2013-07-06 02:20:00,
2013-07-05 21:25:00,78.1,64.0,29.73,SW,235,8.0,8.0,62,0.00,,CLR,0.16,VWS V14.01,2013-07-06 02:25:00,
2013-07-05 21:30:00,77.9,63.8,29.73,East,88,2.0,8.0,62,0.00,,CLR,0.16,VWS V14.01,2013-07-06 02:30:00,
2013-07-05 21:35:00,77.8,64.2,29.73,SSW,201,0.0,7.0,63,0.00,,CLR,0.16,VWS V14.01,2013-07-06 02:35:00,
2013-07-05 21:40:00,77.6,64.0,29.73,WSW,242,3.0,5.0,63,0.00,,CLR,0.16,VWS V14.01,2013-07-06 02:40:00,
2013-07-05 21:45:00,77.4,63.8,29.73,ESE,111,1.0,5.0,63,0.00,,CLR,0.16,VWS V14.01,2013-07-06 02:45:00,
2013-07-05 21:48:00,77.3,63.7,29.73,South,173,1.0,4.0,63,0.00,,CLR,0.16,VWS V14.01,2013-07-06 02:48:00,
2013-07-05 21:54:00,77.1,64.0,29.74,SE,136,3.0,7.0,64,0.00,,CLR,0.16,VWS V14.01,2013-07-06 02:54:00,
2013-07-05 22:00:00,77.0,63.9,29.74,South,169,4.0,4.0,64,0.00,,CLR,0.16,VWS V14.01,2013-07-06 03:00:00,
2013-07-05 22:05:00,77.0,63.9,29.74,SE,138,5.0,5.0,64,0.00,,CLR,0.16,VWS V14.01,2013-07-06 03:05:00,
2013-07-05 22:10:00,77.1,64.0,29.75,SE,142,2.0,5.0,64,0.00,,CLR,0.16,VWS V14.01,2013-07-06 03:10:00,
2013-07-05 22:15:00,77.0,63.9,29.75,SSW,204,2.0,4.0,64,0.00,,CLR,0.16,VWS V14.01,2013-07-06 03:15:00,
2013-07-05 22:20:00,76.7,64.1,29.75,SW,232,1.0,4.0,65,0.00,,CLR,0.16,VWS V14.01,2013-07-06 03:20:00,
2013-07-05 22:25:00,76.6,64.0,29.75,SSE,153,3.0,5.0,65,0.00,,CLR,0.16,VWS V14.01,2013-07-06 03:25:00,
2013-07-05 22:30:00,76.4,63.8,29.75,SE,146,3.0,4.0,65,0.00,,CLR,0.16,VWS V14.01,2013-07-06 03:30:00,
2013-07-05 22:35:00,76.3,64.1,29.75,SSE,162,1.0,6.0,66,0.00,,CLR,0.16,VWS V14.01,2013-07-06 03:35:00,
2013-07-05 22:42:00,76.1,64.4,29.75,SW,214,1.0,4.0,67,0.00,,CLR,0.16,VWS V14.01,2013-07-06 03:42:00,
2013-07-05 22:48:00,75.9,64.2,29.75,SW,224,2.0,4.0,67,0.00,,CLR,0.16,VWS V14.01,2013-07-06 03:48:00,
2013-07-05 22:54:00,75.6,63.9,29.75,SE,137,3.0,6.0,67,0.00,,CLR,0.16,VWS V14.01,2013-07-06 03:54:00,
2013-07-05 23:00:00,75.6,64.3,29.75,SW,228,1.0,5.0,68,0.00,,CLR,0.16,VWS V14.01,2013-07-06 04:00:00,
2013-07-05 23:02:00,75.5,64.2,29.75,SSE,153,1.0,4.0,68,0.00,,CLR,0.16,VWS V14.01,2013-07-06 04:02:00,
2013-07-05 23:04:00,75.4,64.1,29.75,SE,131,1.0,4.0,68,0.00,,CLR,0.16,VWS V14.01,2013-07-06 04:04:00,
2013-07-05 23:05:00,75.4,64.1,29.75,South,187,3.0,4.0,68,0.00,,CLR,0.16,VWS V14.01,2013-07-06 04:05:00,
2013-07-05 23:06:00,75.4,64.1,29.75,WSW,246,4.0,4.0,68,0.00,,CLR,0.16,VWS V14.01,2013-07-06 04:06:00,
2013-07-05 23:12:00,75.2,64.3,29.75,South,176,2.0,3.0,69,0.00,,CLR,0.16,VWS V14.01,2013-07-06 04:12:00,
2013-07-05 23:14:00,75.2,64.3,29.75,SW,228,3.0,4.0,69,0.00,,CLR,0.16,VWS V14.01,2013-07-06 04:14:00,
2013-07-05 23:20:00,75.0,64.2,29.75,SSW,200,4.0,5.0,69,0.00,,CLR,0.16,VWS V14.01,2013-07-06 04:20:00,
2013-07-05 23:25:00,74.9,64.1,29.75,SW,214,1.0,6.0,69,0.00,,CLR,0.16,VWS V14.01,2013-07-06 04:25:00,
2013-07-05 23:30:00,74.9,64.1,29.76,SSW,193,3.0,6.0,69,0.00,,CLR,0.16,VWS V14.01,2013-07-06 04:30:00,
2013-07-05 23:35:00,74.9,64.1,29.76,SW,225,5.0,5.0,69,0.00,,CLR,0.16,VWS V14.01,2013-07-06 04:35:00,
2013-07-05 23:40:00,74.8,64.0,29.76,SW,215,2.0,6.0,69,0.00,,CLR,0.16,VWS V14.01,2013-07-06 04:40:00,
2013-07-05 23:45:00,74.8,64.0,29.76,NW,307,4.0,6.0,69,0.00,,CLR,0.16,VWS V14.01,2013-07-06 04:45:00,
2013-07-05 23:50:00,74.7,64.3,29.76,SSE,158,1.0,6.0,70,0.00,,CLR,0.16,VWS V14.01,2013-07-06 04:50:00,
2013-07-05 23:55:00,74.7,64.3,29.76,SSW,203,2.0,4.0,70,0.00,,CLR,0.16,VWS V14.01,2013-07-06 04:55:00,